• In Uzbekistan
  • List of Countries
  • For 7 days
  • Water Temperature
  • Satellite Maps
  • Weather Map
  • Weather Widgets
  • user-avatar
    Login

    Hourly Weather Whitehorse

    Today, 20 November, Monday

    Time Temperature Precipitation Wind Pressure Humidity
    00:00 -21°C° 0 mm 1 mps 679 mmHg 85%
    01:00 -22°C° 0 mm 1 mps 679 mmHg 85%
    02:00 -22°C° 0 mm 1 mps 680 mmHg 85%
    03:00 -22°C° 0 mm 1 mps 680 mmHg 85%
    04:00 -22°C° 0 mm 1 mps 681 mmHg 85%
    05:00 -22°C° 0 mm 1 mps 681 mmHg 84%
    06:00 -21°C° 0 mm 1 mps 682 mmHg 84%
    07:00 -21°C° 0 mm 1 mps 682 mmHg 84%
    08:00 -21°C° 0 mm 1 mps 683 mmHg 84%
    09:00 -20°C° 0 mm 1 mps 684 mmHg 84%
    10:00 -20°C° 0 mm 1 mps 684 mmHg 82%
    11:00 -19°C° 0 mm 1 mps 685 mmHg 81%
    12:00 -18°C° 0 mm 1 mps 685 mmHg 80%
    13:00 -18°C° 0 mm 1 mps 686 mmHg 82%
    14:00 -19°C° 0 mm 1 mps 686 mmHg 85%
    15:00 -19°C° 0 mm 1 mps 686 mmHg 87%
    16:00 -19°C° 0 mm 1 mps 687 mmHg 88%
    17:00 -19°C° 0 mm 1 mps 687 mmHg 88%
    18:00 -19°C° 0 mm 1 mps 688 mmHg 89%
    19:00 -19°C° 0 mm 1 mps 688 mmHg 89%
    20:00 -19°C° 0 mm 1 mps 688 mmHg 89%
    21:00 -19°C° 0 mm 1 mps 688 mmHg 90%
    22:00 -19°C° 0 mm 1 mps 688 mmHg 90%
    23:00 -19°C° 0 mm 0 mps 688 mmHg 90%

    Tomorrow, 21 November, Tuesday

    Time Temperature Precipitation Wind Pressure Humidity
    00:00 -19°C° 0 mm 0 mps 688 mmHg 90%
    01:00 -19°C° 0 mm 0 mps 688 mmHg 90%
    02:00 -20°C° 0 mm 0 mps 688 mmHg 90%
    03:00 -20°C° 0 mm 1 mps 688 mmHg 90%
    04:00 -20°C° 0 mm 1 mps 687 mmHg 91%
    05:00 -20°C° 0 mm 1 mps 687 mmHg 92%
    06:00 -20°C° 0 mm 1 mps 687 mmHg 92%
    07:00 -20°C° 0 mm 1 mps 686 mmHg 92%
    08:00 -20°C° 0 mm 1 mps 686 mmHg 92%
    09:00 -20°C° 0 mm 1 mps 686 mmHg 92%
    10:00 -18°C° 0 mm 1 mps 685 mmHg 89%
    11:00 -17°C° 0 mm 1 mps 685 mmHg 86%
    12:00 -16°C° 0 mm 1 mps 685 mmHg 82%
    13:00 -16°C° 0 mm 1 mps 684 mmHg 85%
    14:00 -17°C° 0 mm 1 mps 683 mmHg 88%
    15:00 -17°C° 0 mm 1 mps 683 mmHg 91%
    16:00 -17°C° 0 mm 1 mps 682 mmHg 91%
    17:00 -17°C° 0 mm 1 mps 682 mmHg 92%
    18:00 -18°C° 0 mm 1 mps 681 mmHg 93%
    19:00 -18°C° 0 mm 1 mps 681 mmHg 93%
    20:00 -18°C° 0 mm 1 mps 681 mmHg 94%
    21:00 -17°C° 0 mm 1 mps 681 mmHg 94%
    22:00 -17°C° 0 mm 1 mps 681 mmHg 94%
    23:00 -17°C° 0 mm 1 mps 680 mmHg 95%

    Day after tomorrow, 22 November, Wednesday

    Time Temperature Precipitation Wind Pressure Humidity
    00:00 -17°C° 0 mm 1 mps 680 mmHg 95%
    01:00 -17°C° 0 mm 1 mps 680 mmHg 95%
    02:00 -17°C° 0 mm 1 mps 680 mmHg 95%
    03:00 -17°C° 0 mm 1 mps 679 mmHg 96%
    04:00 -17°C° 0 mm 1 mps 679 mmHg 96%
    05:00 -17°C° 0 mm 1 mps 679 mmHg 96%
    06:00 -17°C° 0 mm 1 mps 679 mmHg 96%
    07:00 -16°C° 0 mm 1 mps 679 mmHg 95%
    08:00 -16°C° 0 mm 1 mps 679 mmHg 94%
    09:00 -15°C° 0 mm 1 mps 679 mmHg 93%
    10:00 -17°C° 0.1 mm 2 mps 679 mmHg 92%
    11:00 -16°C° 0.1 mm 2 mps 679 mmHg 91%
    12:00 -16°C° 0.1 mm 2 mps 679 mmHg 90%
    13:00 -16°C° 0.4 mm 2 mps 678 mmHg 91%
    14:00 -16°C° 0.4 mm 2 mps 678 mmHg 93%
    15:00 -17°C° 0.4 mm 2 mps 677 mmHg 94%
    16:00 -17°C° 0.3 mm 2 mps 677 mmHg 94%
    17:00 -17°C° 0.3 mm 2 mps 677 mmHg 94%
    18:00 -17°C° 0.3 mm 2 mps 676 mmHg 94%
    19:00 -18°C° 0.2 mm 2 mps 676 mmHg 93%
    20:00 -18°C° 0.2 mm 2 mps 675 mmHg 93%
    21:00 -18°C° 0.2 mm 2 mps 675 mmHg 93%
    22:00 -18°C° 0.2 mm 2 mps 675 mmHg 93%
    23:00 -18°C° 0.2 mm 2 mps 674 mmHg 93%

    23 November, Thursday

    Time Temperature Precipitation Wind Pressure Humidity
    00:00 -18°C° 0.2 mm 2 mps 674 mmHg 93%
    01:00 -17°C° 0.1 mm 1 mps 673 mmHg 94%
    02:00 -18°C° 0.1 mm 1 mps 673 mmHg 95%
    03:00 -18°C° 0.1 mm 1 mps 672 mmHg 96%
    04:00 -19°C° 0 mm 1 mps 671 mmHg 96%
    05:00 -20°C° 0 mm 1 mps 671 mmHg 96%
    06:00 -20°C° 0 mm 1 mps 671 mmHg 96%
    07:00 -20°C° 0 mm 1 mps 670 mmHg 95%
    08:00 -20°C° 0 mm 1 mps 670 mmHg 95%
    09:00 -20°C° 0 mm 1 mps 670 mmHg 94%
    10:00 -19°C° 0 mm 0 mps 670 mmHg 91%
    11:00 -18°C° 0 mm 0 mps 670 mmHg 89%
    12:00 -16°C° 0 mm 0 mps 670 mmHg 86%
    13:00 -16°C° 0 mm 0 mps 670 mmHg 88%
    14:00 -17°C° 0 mm 0 mps 669 mmHg 89%
    15:00 -17°C° 0 mm 0 mps 669 mmHg 91%
    16:00 -17°C° 0 mm 0 mps 669 mmHg 92%
    17:00 -18°C° 0 mm 0 mps 669 mmHg 92%
    18:00 -18°C° 0 mm 0 mps 669 mmHg 93%
    19:00 -18°C° 0 mm 0 mps 670 mmHg 93%
    20:00 -17°C° 0 mm 0 mps 670 mmHg 93%
    21:00 -17°C° 0 mm 0 mps 670 mmHg 93%
    22:00 -17°C° 0.1 mm 1 mps 671 mmHg 93%
    23:00 -17°C° 0.1 mm 1 mps 671 mmHg 94%

    24 November, Friday

    Time Temperature Precipitation Wind Pressure Humidity
    00:00 -17°C° 0.1 mm 1 mps 671 mmHg 94%
    01:00 -17°C° 0.1 mm 1 mps 671 mmHg 94%
    02:00 -17°C° 0.1 mm 1 mps 672 mmHg 94%
    03:00 -17°C° 0.1 mm 1 mps 672 mmHg 94%
    04:00 -17°C° 0 mm 1 mps 672 mmHg 95%
    05:00 -18°C° 0 mm 1 mps 672 mmHg 95%
    06:00 -20°C° 0 mm 2 mps 672 mmHg 95%
    07:00 -20°C° 0.1 mm 2 mps 673 mmHg 95%
    08:00 -20°C° 0.1 mm 2 mps 673 mmHg 94%
    09:00 -20°C° 0.1 mm 2 mps 673 mmHg 94%
    10:00 -19°C° 0.2 mm 2 mps 674 mmHg 93%
    11:00 -19°C° 0.2 mm 2 mps 674 mmHg 92%
    12:00 -18°C° 0.2 mm 2 mps 675 mmHg 91%
    13:00 -18°C° 0.3 mm 2 mps 675 mmHg 92%
    14:00 -18°C° 0.3 mm 2 mps 676 mmHg 93%
    15:00 -18°C° 0.3 mm 2 mps 676 mmHg 94%
    16:00 -18°C° 0.3 mm 2 mps 677 mmHg 94%
    17:00 -18°C° 0.3 mm 2 mps 677 mmHg 94%
    18:00 -18°C° 0.3 mm 2 mps 678 mmHg 94%
    19:00 -18°C° 0.2 mm 2 mps 679 mmHg 94%
    20:00 -18°C° 0.2 mm 2 mps 679 mmHg 94%
    21:00 -18°C° 0.2 mm 2 mps 680 mmHg 94%
    22:00 -19°C° 0.1 mm 2 mps 681 mmHg 95%
    23:00 -19°C° 0.1 mm 2 mps 681 mmHg 95%

    25 November, Saturday

    Time Temperature Precipitation Wind Pressure Humidity
    00:00 -17°C° 0.1 mm 1 mps 682 mmHg 95%
    01:00 -17°C° 0.1 mm 1 mps 683 mmHg 95%
    02:00 -18°C° 0.1 mm 1 mps 683 mmHg 95%
    03:00 -18°C° 0.1 mm 1 mps 684 mmHg 95%
    04:00 -18°C° 0 mm 1 mps 684 mmHg 95%
    05:00 -18°C° 0 mm 1 mps 685 mmHg 95%
    06:00 -19°C° 0 mm 1 mps 685 mmHg 95%
    07:00 -19°C° 0 mm 1 mps 686 mmHg 95%
    08:00 -19°C° 0 mm 1 mps 686 mmHg 95%
    09:00 -20°C° 0 mm 1 mps 687 mmHg 95%
    10:00 -19°C° 0 mm 1 mps 687 mmHg 93%
    11:00 -18°C° 0 mm 1 mps 687 mmHg 92%
    12:00 -18°C° 0 mm 1 mps 688 mmHg 90%
    13:00 -19°C° 0 mm 1 mps 687 mmHg 92%
    14:00 -20°C° 0 mm 1 mps 687 mmHg 94%
    15:00 -20°C° 0 mm 1 mps 687 mmHg 96%
    16:00 -21°C° 0 mm 1 mps 686 mmHg 96%
    17:00 -22°C° 0 mm 1 mps 686 mmHg 96%
    18:00 -22°C° 0 mm 1 mps 686 mmHg 96%
    19:00 -22°C° 0 mm 1 mps 685 mmHg 96%
    20:00 -23°C° 0 mm 1 mps 685 mmHg 96%
    21:00 -23°C° 0 mm 1 mps 684 mmHg 96%
    22:00 -23°C° 0 mm 1 mps 684 mmHg 96%
    23:00 -23°C° 0 mm 1 mps 683 mmHg 96%
    Show more